Terminal Aerodrome Forecast
Issued by NWS

Home | Current Version | Previous Version | Text Only | Print | Product List | Glossary On
Versions: 1 2 3 4 5 6 7 8 9 10 11 12 13 14 15 16 17 18 19 20
000
FTUS45 KBOU 151740
TAFAPA
TAF
KAPA 151740Z 1518/1618 36006KT P6SM SKC
     FM152000 04007KT P6SM SKC
     FM152300 14007KT P6SM SKC
     FM160200 18006KT P6SM SKC
     FM161700 26008KT P6SM SCT220=

USA.gov is the U.S. government's official web portal to all federal, state and local government web resources and services.